This is the latest recevied weather packets stored in our database for station/object WK1F-2. If no packets are shown the sender has not sent any weather packets the latest 10 day(s).
| Time | Temp. | Humidity | Pressure | Rain* | Wind** | Luminosity | Snow |
|---|---|---|---|---|---|---|---|
| 1778092051 | 28.33° C | 55% | 1015.3 hPa | 0 mm | - | - | - |
| 1778091751 | 28.89° C | 56% | 1015.4 hPa | 0 mm | - | - | - |
| 1778091451 | 28.89° C | 55% | 1015.4 hPa | 0 mm | - | - | - |
| 1778091151 | 29.44° C | 54% | 1015.5 hPa | 0 mm | - | - | - |
| 1778090851 | 30° C | 52% | 1015.6 hPa | 0 mm | - | - | - |
| 1778090551 | 30° C | 52% | 1015.6 hPa | 0 mm | - | - | - |
| 1778090251 | 30° C | 46% | 1015.6 hPa | 0 mm | - | - | - |
| 1778089951 | 30° C | 46% | 1015.7 hPa | 0 mm | - | - | - |
| 1778089651 | 29.44° C | 47% | 1015.8 hPa | 0 mm | - | - | - |
| 1778089351 | 30° C | 46% | 1015.9 hPa | 0 mm | - | - | - |
| 1778089051 | 30° C | 45% | 1016 hPa | 0 mm | - | - | - |
| 1778088751 | 30° C | 47% | 1016 hPa | 0 mm | - | - | - |
| 1778088451 | 29.44° C | 47% | 1016.1 hPa | 0 mm | - | - | - |
| 1778088151 | 29.44° C | 47% | 1016.1 hPa | 0 mm | - | - | - |
| 1778087851 | 29.44° C | 47% | 1016.1 hPa | 0 mm | - | - | - |
| 1778087551 | 29.44° C | 47% | 1016.3 hPa | 0 mm | - | - | - |
| 1778087251 | 29.44° C | 47% | 1016.3 hPa | 0 mm | - | - | - |
| 1778086951 | 29.44° C | 49% | 1016.3 hPa | 0 mm | - | - | - |
| 1778086651 | 29.44° C | 48% | 1016.4 hPa | 0 mm | - | - | - |
| 1778086351 | 28.89° C | 50% | 1016.5 hPa | 0 mm | - | - | - |
| 1778086051 | 28.89° C | 49% | 1016.4 hPa | 0 mm | - | - | - |
| 1778085751 | 28.89° C | 50% | 1016.5 hPa | 0 mm | - | - | - |
| 1778085451 | 28.89° C | 51% | 1016.7 hPa | 0 mm | - | - | - |
| 1778085151 | 28.33° C | 52% | 1016.8 hPa | 0 mm | - | - | - |
| 1778084850 | 28.33° C | 51% | 1016.8 hPa | 0 mm | - | - | - |
* Rain latest hour (hover to see other rain measurements)
** Current wind speed in m/s (hover to see current wind gust speed)